Simultaneous Nadir Overpasses (SNOs) Predictions

Prediction of SNOs between LANDSAT-8 and NOAA-19 Satellite Orbit:

Table of predicted SNOs for the next 14.0 days since TLE Epoch: 12/7/2019
Index Date (LANDSAT-8) Time (LANDSAT-8) Lat,Lon (LANDSAT-8) SZA (LANDSAT-8 ) Date (NOAA-19) Time (NOAA-19) Lat,Lon (NOAA-19) SZA (NOAA-19 ) Distance(km) Time Diff (sec)
1 12/08/2019 09:11:34 -79.31,-115.28 77.14 12/08/2019 09:11:00 -79.30,-115.25 77.15 0.76 34
2 12/08/2019 10:01:01 79.27, 52.09 102.81 12/08/2019 10:02:01 79.28, 52.18 102.86 2.53 60
3 12/10/2019 14:45:17 79.32, -18.65 103.08 12/10/2019 14:44:24 79.33, -18.77 103.07 3.06 53
4 12/10/2019 15:34:45 -79.28, 148.78 76.97 12/10/2019 15:35:21 -79.29, 148.90 76.94 2.45 36
5 12/12/2019 20:18:58 -79.45, 78.80 76.58 12/12/2019 20:17:50 -79.53, 76.10 76.71 55.44 68
6 12/12/2019 21:08:28 79.29,-114.62 103.21 12/12/2019 21:08:45 79.30,-114.50 103.23 2.96 17
7 12/15/2019 02:42:12 -79.31, -17.93 76.65 12/15/2019 02:42:04 -79.31, -17.81 76.64 2.54 8
8 12/17/2019 08:15:54 79.34, 78.87 103.49 12/17/2019 08:15:29 79.33, 78.76 103.46 2.78 25
9 12/17/2019 09:05:22 -79.32,-113.66 76.55 12/17/2019 09:06:25 -79.30,-113.70 76.55 2.44 63
10 12/19/2019 13:49:39 -79.32, 175.30 76.50 12/19/2019 13:48:47 -79.34, 175.44 76.49 3.18 52




NCC Satellite Simultaneous Nadir Overpasses (SNOs) Prediction Service
